Regional Weather Roundup
Issued by NWS

Home | Current Version | Previous Version | Graphics & Text | Print | Product List | Glossary On
Versions: 1 2 3 4 5 6 7 8 9 10 11 12 13 14 15 16 17 18 19 20 21 22 23 24 25 26 27 28 29 30 31 32 33 34 35 36 37 38 39 40 41 42 43 44 45 46 47 48 49 50
000
ASUS43 KLMK 012110
RWRKY
KENTUCKY REGIONAL WEATHER ROUNDUP
NATIONAL WEATHER SERVICE LOUISVILLE KY
500 PM EDT FRI AUG 01 2014

NOTE "FAIR" INDICATES FEW OR NO CLOUDS BELOW 12,000 FEET
WITH NO SIGNIFICANT WEATHER AND/OR OBSTRUCTIONS TO VISIBILITY.

KYZ001>023-026-027-061>063-070>075-012200-
WESTERN AND SOUTH CENTRAL KENTUCKY

CITY           SKY/WX    TMP DP  RH WIND       PRES   REMARKS
PADUCAH        MOSUNNY   88  62  41 NW5       30.03F
HENDERSON      SUNNY    N/A N/A N/A MISG        N/A
OWENSBORO      MOSUNNY   85  60  42 E7        30.04F
HOPKINSVILLE   PTSUNNY   86  55  33 NE3       30.03F
BOWLING GREEN  PTSUNNY   86  53  32 NE9       30.04S
GLASGOW        SUNNY     87  50  27 E6        30.04S
$$

KYZ024-025-028>034-038-045-046-053-012200-
NORTH CENTRAL KENTUCKY

CITY           SKY/WX    TMP DP  RH WIND       PRES   REMARKS
LOUISVILLE/SDF MOSUNNY   87  54  32 VRB5      30.04F
LOUISVILLE/LOU MOSUNNY   85  54  34 VRB6      30.04F
FORT KNOX      MOSUNNY   83  58  42 N6        30.04F
$$

KYZ035>037-039>044-047>052-055>060-089>105-012200-
NORTHEAST KENTUCKY

CITY           SKY/WX    TMP DP  RH WIND       PRES   REMARKS
LEXINGTON      SUNNY     85  58  39 NE6       30.06F
COVINGTON      MOSUNNY   83  57  41 CALM      30.07F
FRANKFORT      SUNNY     85  56  37 VRB5      30.05F
$$

KYZ054-064>069-076>088-106>120-012200-
SOUTHEAST KENTUCKY

CITY           SKY/WX    TMP DP  RH WIND       PRES   REMARKS
JACKSON        CLOUDY    81  61  50 CALM      30.07F
LONDON         MOSUNNY   84  62  47 VRB6      30.06F
SOMERSET       CLOUDY    79  61  53 N5        30.06F
MIDDLESBORO    PTSUNNY   83  64  53 CALM      30.06F
MONTICELLO     CLEAR     86  65  49 N6        30.07F
$$




USA.gov is the U.S. government's official web portal to all federal, state and local government web resources and services.